Weather History for KSLO - November, 2013

Change the Weather History Date:

Friday, November 22, 2013

  Actual Average Record
Temperature  
Mean Temperature 44 °F -  
Max Temperature 52 °F 51 °F 70 °F (1973)
Min Temperature 35 °F 31 °F 9 °F (1964)
Degree Days  
Heating Degree Days 21    
Moisture  
Dew Point 42 °F    
Average Humidity 93    
Maximum Humidity 100    
Minimum Humidity 81    
Precipitation  
Precipitation 0.00 in - - ()
Sea Level Pressure  
Sea Level Pressure 30.37 in    
Wind  
Wind Speed 9 mph (NNW)    
Max Wind Speed 17 mph    
Max Gust Speed 24 mph    
Visibility 6 miles    
Events Rain    
Averages and records for this station are not official NWS values.
T = Trace of Precipitation, MM = Missing Value Source: NWS Daily Summary

Daily Weather History Graph

Daily Weather History Graph

Search for Another Location

Airport or City:

Trip Planner

Search our weather history database for the weather conditions in past years. The results will help you decide how hot, cold, wet, or windy it might be!

Date:

Astronomy

Nov. 22, 2013 Rise Set
Actual Time 6:45 AM CST 4:38 PM CST
Civil Twilight 6:16 AM CST 5:06 PM CST
Nautical Twilight 5:44 AM CST 5:39 PM CST
Astronomical Twilight 5:12 AM CST 6:11 PM CST
Moon 9:09 PM CST (11/22) 10:29 AM CST (11/22)
Length of Visible Light 10h 49m
Length of Day
9h 52m
Waning Gibbous, 78% of the Moon is Illuminated
Nov 22
Waning Gibbous
Nov 25
Last Quarter
Dec 2
New
Dec 9
First Quarter
Dec 17
Full

Hourly Weather History & Observations

Time (CST) Temp. Windchill Dew Point Humidity Pressure Visibility Wind Dir Wind Speed Gust Speed Precip Events Conditions
12:15 AM 52.2 °F - 52.2 °F 100% 30.19 in 1.2 mi Calm Calm - N/A   Light Drizzle
12:35 AM 52.2 °F - 52.2 °F 100% 30.19 in 1.2 mi WNW 3.5 mph - N/A   Overcast
12:55 AM 52.3 °F - 52.3 °F 100% 30.19 in 1.2 mi Calm Calm - N/A   Overcast
1:15 AM 52.2 °F - 52.2 °F 100% 30.19 in 1.8 mi Calm Calm - N/A   Overcast
1:35 AM 52.2 °F - 52.2 °F 100% 30.20 in 2.5 mi WNW 4.6 mph - N/A   Overcast
1:55 AM 52.0 °F - 52.0 °F 100% 30.20 in 2.0 mi NW 5.8 mph - N/A   Overcast
2:15 AM 51.8 °F - 51.8 °F 100% 30.21 in 1.8 mi NW 4.6 mph - N/A   Overcast
2:35 AM 51.8 °F - 51.8 °F 100% 30.21 in 2.0 mi NW 5.8 mph - N/A   Overcast
2:55 AM 51.4 °F - 51.4 °F 100% 30.21 in 2.0 mi NW 6.9 mph - N/A   Overcast
3:15 AM 51.3 °F - 51.3 °F 100% 30.21 in 2.5 mi NW 4.6 mph - N/A   Overcast
3:35 AM 51.3 °F - 51.3 °F 100% 30.21 in 4.0 mi NNW 5.8 mph - N/A   Overcast
3:55 AM 50.9 °F - 50.9 °F 100% 30.22 in 4.0 mi NNW 9.2 mph - N/A   Overcast
4:15 AM 50.4 °F - 50.4 °F 100% 30.23 in 5.0 mi NNW 9.2 mph - N/A   Overcast
4:35 AM 50.0 °F - 50.0 °F 100% 30.23 in 5.0 mi NNW 11.5 mph - N/A   Overcast
4:55 AM 50.0 °F - 50.0 °F 100% 30.25 in 5.0 mi NW 9.2 mph - N/A   Overcast
5:15 AM 49.5 °F - 49.5 °F 100% 30.25 in 3.0 mi NNW 11.5 mph - N/A   Overcast
5:35 AM 49.1 °F - 49.1 °F 100% 30.27 in 2.0 mi NNW 16.1 mph 19.6 mph N/A Rain Rain
5:55 AM 47.7 °F - 47.7 °F 100% 30.28 in 2.5 mi NNW 12.7 mph 20.7 mph N/A Rain Light Rain
6:15 AM 46.9 °F - 46.9 °F 100% 30.29 in 4.0 mi NNW 16.1 mph 20.7 mph N/A   Overcast
6:35 AM 46.4 °F 39.8 °F 46.4 °F 100% 30.30 in 5.0 mi NW 16.1 mph 21.9 mph N/A   Overcast
6:55 AM 45.5 °F 39.6 °F 45.5 °F 100% 30.31 in 5.0 mi NNW 12.7 mph 19.6 mph N/A   Overcast
7:15 AM 45.5 °F 38.9 °F 45.5 °F 100% 30.32 in 4.0 mi NNW 15.0 mph 19.6 mph N/A   Overcast
7:35 AM 45.0 °F 38.2 °F 45.0 °F 100% 30.33 in 2.5 mi NNW 15.0 mph - N/A   Overcast
7:55 AM 44.8 °F 38.0 °F 44.8 °F 100% 30.34 in 2.0 mi NNW 15.0 mph 21.9 mph N/A   Overcast
8:15 AM 44.6 °F 38.1 °F 44.2 °F 99% 30.35 in 2.5 mi NW 13.8 mph 19.6 mph N/A   Overcast
8:35 AM 44.2 °F 37.0 °F 43.3 °F 97% 30.36 in 2.5 mi NNW 16.1 mph 20.7 mph N/A   Overcast
8:55 AM 44.4 °F 37.2 °F 43.2 °F 95% 30.37 in 2.5 mi NNW 16.1 mph 19.6 mph N/A   Overcast
9:15 AM 44.2 °F 38.0 °F 43.0 °F 95% 30.37 in 2.5 mi North 12.7 mph 18.4 mph N/A   Overcast
9:35 AM 44.1 °F 37.7 °F 42.8 °F 95% 30.38 in 3.0 mi NW 12.7 mph - N/A   Overcast
9:55 AM 43.5 °F 37.1 °F 42.8 °F 97% 30.39 in 4.0 mi NNW 12.7 mph - N/A   Overcast
10:15 AM 43.7 °F 36.6 °F 42.3 °F 95% 30.39 in 5.0 mi NNW 15.0 mph - N/A   Overcast
10:35 AM 43.7 °F 36.9 °F 42.1 °F 94% 30.40 in 5.0 mi NNW 13.8 mph - N/A   Overcast
10:55 AM 43.9 °F 36.5 °F 41.9 °F 93% 30.39 in 5.0 mi NNW 16.1 mph 21.9 mph N/A   Overcast
11:15 AM 43.7 °F 36.6 °F 41.4 °F 91% 30.40 in 5.0 mi NNW 15.0 mph - N/A   Overcast
11:35 AM 43.5 °F 36.1 °F 41.0 °F 91% 30.40 in 5.0 mi NNW 16.1 mph 21.9 mph N/A   Overcast
11:55 AM 43.7 °F 36.6 °F 40.6 °F 89% 30.40 in 5.0 mi NNW 15.0 mph 23.0 mph N/A   Overcast
12:15 PM 43.2 °F 35.9 °F 40.8 °F 91% 30.40 in 5.0 mi NW 15.0 mph - N/A   Overcast
12:35 PM 42.6 °F 35.2 °F 40.6 °F 93% 30.40 in 5.0 mi North 15.0 mph 20.7 mph N/A   Overcast
12:55 PM 42.4 °F 35.7 °F 40.5 °F 93% 30.40 in 5.0 mi NNW 12.7 mph 17.3 mph N/A   Overcast
1:15 PM 42.1 °F 34.2 °F 40.3 °F 93% 30.40 in 5.0 mi North 16.1 mph 20.7 mph N/A   Overcast
1:35 PM 42.1 °F 34.5 °F 39.7 °F 91% 30.40 in 7.0 mi NNW 15.0 mph - N/A   Overcast
1:55 PM 42.3 °F 35.5 °F 39.4 °F 90% 30.39 in 10.0 mi North 12.7 mph - N/A   Overcast
2:15 PM 42.8 °F 37.0 °F 39.4 °F 88% 30.39 in 10.0 mi North 10.4 mph - N/A   Overcast
2:35 PM 42.8 °F 35.4 °F 39.0 °F 86% 30.41 in 10.0 mi NNW 15.0 mph - N/A   Overcast
2:55 PM 42.4 °F 36.5 °F 38.7 °F 86% 30.42 in 10.0 mi NNW 10.4 mph - N/A   Overcast
3:15 PM 42.3 °F 35.1 °F 38.5 °F 86% 30.42 in 10.0 mi NNW 13.8 mph - N/A   Overcast
3:35 PM 42.1 °F 34.9 °F 38.7 °F 88% 30.42 in 10.0 mi NNW 13.8 mph - N/A   Overcast
3:55 PM 41.9 °F 34.3 °F 38.3 °F 87% 30.43 in 10.0 mi NNW 15.0 mph - N/A   Overcast
4:15 PM 41.4 °F 34.0 °F 37.9 °F 88% 30.44 in 10.0 mi North 13.8 mph 18.4 mph N/A   Overcast
4:35 PM 41.0 °F 32.5 °F 37.8 °F 88% 30.46 in 10.0 mi NNW 17.3 mph 24.2 mph N/A   Overcast
4:55 PM 41.0 °F 33.1 °F 37.4 °F 87% 30.47 in 10.0 mi North 15.0 mph 20.7 mph N/A   Overcast
5:15 PM 40.6 °F 33.0 °F 37.4 °F 88% 30.47 in 10.0 mi NNW 13.8 mph - N/A   Overcast
5:35 PM 40.3 °F 32.2 °F 37.2 °F 89% 30.48 in 10.0 mi North 15.0 mph 21.9 mph N/A   Overcast
5:55 PM 39.6 °F 30.6 °F 36.9 °F 90% 30.48 in 10.0 mi North 17.3 mph 20.7 mph N/A   Overcast
6:15 PM 39.4 °F 31.8 °F 36.5 °F 89% 30.49 in 10.0 mi NNW 12.7 mph - N/A   Overcast
6:35 PM 39.2 °F 31.6 °F 36.3 °F 89% 30.49 in 10.0 mi North 12.7 mph - N/A   Overcast
6:55 PM 39.2 °F 30.8 °F 35.8 °F 88% 30.48 in 10.0 mi North 15.0 mph 23.0 mph N/A   Overcast
7:15 PM 39.2 °F 31.6 °F 35.6 °F 87% 30.48 in 10.0 mi North 12.7 mph 16.1 mph N/A   Overcast
7:35 PM 39.2 °F 32.0 °F 35.1 °F 85% 30.48 in 10.0 mi North 11.5 mph 18.4 mph N/A   Overcast
7:55 PM 38.8 °F 30.4 °F 34.9 °F 86% 30.48 in 10.0 mi North 15.0 mph - N/A   Overcast
8:15 PM 38.8 °F 30.0 °F 34.7 °F 85% 30.48 in 10.0 mi North 16.1 mph - N/A   Overcast
8:35 PM 38.7 °F 31.4 °F 34.5 °F 85% 30.48 in 10.0 mi North 11.5 mph - N/A   Overcast
8:55 PM 38.3 °F 30.9 °F 33.8 °F 84% 30.48 in 10.0 mi North 11.5 mph - N/A   Mostly Cloudy
9:15 PM 38.3 °F 31.4 °F 33.3 °F 82% 30.48 in 10.0 mi North 10.4 mph - N/A   Mostly Cloudy
9:35 PM 38.3 °F 32.5 °F 32.9 °F 81% 30.48 in 10.0 mi North 8.1 mph - N/A   Mostly Cloudy
9:55 PM 37.8 °F 31.3 °F 32.7 °F 82% 30.48 in 10.0 mi North 9.2 mph - N/A   Scattered Clouds
10:15 PM 37.4 °F 31.4 °F 32.4 °F 82% 30.48 in 10.0 mi North 8.1 mph - N/A   Clear
10:35 PM 37.4 °F 32.8 °F 32.5 °F 83% 30.49 in 10.0 mi NNW 5.8 mph - N/A   Clear
10:55 PM 36.5 °F 29.7 °F 33.4 °F 89% 30.49 in 10.0 mi North 9.2 mph - N/A   Clear
11:15 PM 36.3 °F 29.5 °F 33.8 °F 91% 30.49 in 10.0 mi North 9.2 mph - N/A   Clear
11:35 PM 36.0 °F 29.6 °F 33.8 °F 92% 30.49 in 10.0 mi NNW 8.1 mph - N/A   Clear
11:55 PM 35.6 °F 28.6 °F 33.1 °F 91% 30.48 in 10.0 mi North 9.2 mph - N/A   Clear